Findlay, OH

2:19 AM EDT on September 26, 2017 (GMT -0400)
Findlay

Weather History for KFDY - October, 2014

Change the Weather History Date:

Monday, October 20, 2014

  Actual Average Record
Temperature  
Mean Temperature 52 °F -  
Max Temperature 57 °F 57 °F 85 °F (1953)
Min Temperature 46 °F 39 °F 23 °F (1952)
Degree Days  
Heating Degree Days 14    
Growing Degree Days 2 (Base 50)    
Moisture  
Dew Point 47 °F    
Average Humidity 84    
Maximum Humidity 93    
Minimum Humidity 66    
Precipitation  
Precipitation 0.29 in - - ()
Sea Level Pressure  
Sea Level Pressure 29.87 in    
Wind  
Wind Speed 9 mph (SW)    
Max Wind Speed 14 mph    
Max Gust Speed -    
Visibility 7 miles    
Events Rain    
Averages and records for this station are not official NWS values.
T = Trace of Precipitation, MM = Missing Value Source: NWS Daily Summary

Daily Weather History Graph

Daily Weather History Graph

Search for Another Location

Airport or City:

Trip Planner

Search our weather history database for the weather conditions in past years. The results will help you decide how hot, cold, wet, or windy it might be!

Date:

Astronomy

Oct. 20, 2014 Rise Set
Actual Time 7:51 AM EDT 6:46 PM EDT
Civil Twilight 7:23 AM EDT 7:14 PM EDT
Nautical Twilight 6:51 AM EDT 7:46 PM EDT
Astronomical Twilight 6:19 AM EDT 8:18 PM EDT
Moon 4:37 AM EDT (10/20) 5:10 PM EDT (10/20)
Length of Visible Light 11h 50m
Length of Day
10h 54m
Waning Crescent, 10% of the Moon is Illuminated
Oct 20
Waning Crescent
Oct 23
New
Oct 30
First Quarter
Nov 6
Full
Nov 14
Last Quarter

Hourly Weather History & Observations

Time (EDT) Temp. Dew Point Humidity Pressure Visibility Wind Dir Wind Speed Gust Speed Precip Events Conditions
12:53 AM 48.0 °F 37.0 °F 66% 30.00 in 10.0 mi North - - N/A   Mostly Cloudy
1:53 AM 48.9 °F 37.9 °F 66% 29.99 in 10.0 mi SSW 9.2 mph - N/A   Mostly Cloudy
2:53 AM 48.0 °F 39.9 °F 74% 29.99 in 10.0 mi SSW 8.1 mph - 0.00 in Rain Light Rain
3:53 AM 46.9 °F 42.1 °F 83% 29.96 in 10.0 mi SSW 6.9 mph - 0.00 in   Overcast
4:53 AM 46.9 °F 42.1 °F 83% 29.94 in 10.0 mi South 8.1 mph - N/A   Mostly Cloudy
5:53 AM 48.0 °F 42.1 °F 80% 29.94 in 10.0 mi SSW 8.1 mph - N/A   Mostly Cloudy
6:53 AM 48.0 °F 42.1 °F 80% 29.92 in 10.0 mi SSW 9.2 mph - N/A   Mostly Cloudy
7:53 AM 48.9 °F 43.0 °F 80% 29.91 in 10.0 mi South 11.5 mph - N/A   Overcast
8:53 AM 50.0 °F 43.0 °F 77% 29.91 in 10.0 mi SSW 10.4 mph - 0.01 in   Overcast
9:53 AM 52.0 °F 44.1 °F 74% 29.89 in 10.0 mi SSW 13.8 mph - 0.00 in   Overcast
10:53 AM 53.1 °F 45.0 °F 74% 29.88 in 10.0 mi SSW 13.8 mph - 0.00 in   Overcast
11:53 AM 54.0 °F 48.0 °F 80% 29.86 in 10.0 mi South 11.5 mph - 0.00 in   Overcast
12:53 PM 57.0 °F 46.9 °F 69% 29.85 in 10.0 mi SW 13.8 mph - 0.01 in   Overcast
1:24 PM 55.0 °F 46.9 °F 74% 29.85 in 9.0 mi WSW 11.5 mph - 0.00 in Rain Light Rain
1:39 PM 53.1 °F 48.9 °F 86% 29.84 in 2.0 mi SW 9.2 mph - 0.04 in Rain Heavy Rain
1:49 PM 53.6 °F 48.2 °F 82% 29.84 in 1.8 mi WSW 6.9 mph - 0.08 in Rain Rain
1:53 PM 53.1 °F 48.9 °F 86% 29.84 in 1.8 mi WSW 4.6 mph - 0.09 in Rain Rain
2:01 PM 53.1 °F 50.0 °F 89% 29.84 in 2.0 mi Variable 3.5 mph - 0.03 in Rain Rain
2:06 PM 53.1 °F 48.9 °F 86% 29.84 in 1.8 mi WSW 5.8 mph - 0.05 in Rain Rain
2:14 PM 53.1 °F 50.0 °F 89% 29.84 in 3.0 mi WSW 5.8 mph - 0.06 in Rain Light Rain
2:53 PM 54.0 °F 50.0 °F 86% 29.83 in 8.0 mi WSW 5.8 mph - 0.06 in   Overcast
3:17 PM 53.1 °F 50.0 °F 89% 29.83 in 4.0 mi SW 11.5 mph - 0.01 in Rain Rain
3:30 PM 53.1 °F 50.0 °F 89% 29.83 in 1.8 mi SW 9.2 mph - 0.06 in Rain Rain
3:39 PM 53.1 °F 50.0 °F 89% 29.82 in 3.0 mi SSW 10.4 mph - 0.07 in Rain Light Rain
3:53 PM 53.1 °F 50.0 °F 89% 29.81 in 5.0 mi SSW 12.7 mph - 0.08 in Rain Light Rain
4:53 PM 54.0 °F 51.1 °F 90% 29.81 in 8.0 mi SW 11.5 mph - 0.04 in   Overcast
5:03 PM 54.0 °F 51.1 °F 90% 29.82 in 9.0 mi SW 9.2 mph - N/A   Overcast
5:53 PM 55.0 °F 51.1 °F 86% 29.82 in 7.0 mi SW 6.9 mph - N/A   Overcast
6:14 PM 55.0 °F 52.0 °F 89% 29.83 in 7.0 mi WSW 5.8 mph - N/A   Overcast
6:29 PM 55.0 °F 52.0 °F 89% 29.83 in 7.0 mi SW 5.8 mph - N/A   Overcast
6:53 PM 55.0 °F 52.0 °F 89% 29.83 in 7.0 mi WSW 4.6 mph - N/A   Overcast
7:53 PM 54.0 °F 51.1 °F 90% 29.85 in 7.0 mi West 4.6 mph - N/A   Overcast
8:06 PM 54.0 °F 51.1 °F 90% 29.85 in 7.0 mi West 4.6 mph - N/A   Overcast
8:53 PM 52.0 °F 50.0 °F 93% 29.85 in 5.0 mi West 5.8 mph - N/A   Mostly Cloudy
9:53 PM 51.1 °F 48.9 °F 92% 29.86 in 4.0 mi West 4.6 mph - N/A   Mostly Cloudy
10:53 PM 53.1 °F 50.0 °F 89% 29.86 in 6.0 mi WNW 5.8 mph - N/A   Overcast
11:53 PM 51.1 °F 48.0 °F 89% 29.86 in 8.0 mi West 8.1 mph - N/A   Partly Cloudy